,,Stat5,,Stat1,,Stat2,,Stat3,,Stat4,,Wind1,,Wind1
time,status,PA1M_AVG,status,PR1M_SUM,status,RH1M_AVG,status,SR1M_AVG,status,TA1M_AVG,status,W1dAve1m,status,W1sAve1m
2000-06-19, 00:00:01,VALID,918.223,VALID,0,VALID,99.2449,VALID,0,VALID,18.8531,VALID,198,VALID,0.698691
2000-06-19, 00:01:00,VALID,918.211,VALID,0,VALID,99.2487,VALID,0,VALID,18.8333,VALID,187,VALID,1.1345
2000-06-19, 00:02:00,VALID,918.208,VALID,0,VALID,99.2525,VALID,0,VALID,18.8303,VALID,204,VALID,0.73738
2000-06-19, 00:03:00,VALID,918.208,VALID,0,VALID,99.2678,VALID,0.0169808,VALID,18.8298,VALID,186,VALID,0.978885
2000-06-19, 00:04:00,VALID,918.213,VALID,0,VALID,99.2271,VALID,0,VALID,18.8109,VALID,193,VALID,1.18195
2000-06-19, 00:05:00,VALID,918.222,VALID,0,VALID,99.2564,VALID,0.0169808,VALID,18.7972,VALID,201,VALID,0.65282
2000-06-19, 00:06:00,VALID,918.23,VALID,0,VALID,99.2398,VALID,0,VALID,18.7908,VALID,200,VALID,0.688086
2000-06-19, 00:07:00,VALID,918.242,VALID,0,VALID,99.2297,VALID,0.0169808,VALID,18.7977,VALID,211,VALID,0.610176
2000-06-19, 00:08:00,VALID,918.235,VALID,0,VALID,99.2576,VALID,0,VALID,18.8047,VALID,193,VALID,0.206209
2000-06-19, 00:09:00,VALID,918.221,VALID,0,VALID,99.2475,VALID,0,VALID,18.8037,VALID,192,VALID,0.52763
2000-06-19, 00:10:00,VALID,918.198,VALID,0,VALID,99.2208,VALID,-0.0169808,VALID,18.7917,VALID,193,VALID,0.823396
2000-06-19, 00:11:00,VALID,918.172,VALID,0,VALID,99.2284,VALID,-0.0169808,VALID,18.7818,VALID,190,VALID,0.825041
2000-06-19, 00:12:00,VALID,918.169,VALID,0,VALID,99.2653,VALID,-0.0509425,VALID,18.7883,VALID,193,VALID,0.708767
2000-06-19, 00:13:00,VALID,918.165,VALID,0,VALID,99.236,VALID,-0.0849042,VALID,18.795,VALID,205,VALID,0.714316
2000-06-19, 00:14:00,VALID,918.156,VALID,0,VALID,99.2411,VALID,-0.0339617,VALID,18.7954,VALID,209,VALID,0.633482
2000-06-19, 00:15:00,VALID,918.14,VALID,0,VALID,99.2119,VALID,-0.0169808,VALID,18.7788,VALID,192,VALID,1.12829
2000-06-19, 00:16:00,VALID,918.141,VALID,0,VALID,99.2131,VALID,-0.0169808,VALID,18.7691,VALID,201,VALID,0.812078
2000-06-19, 00:17:00,VALID,918.132,VALID,0,VALID,99.2271,VALID,-0.0679233,VALID,18.7721,VALID,188,VALID,0.623355
2000-06-19, 00:18:00,VALID,918.122,VALID,0,VALID,99.2309,VALID,-0.0679233,VALID,18.7818,VALID,193,VALID,0.353885
2000-06-19, 00:19:00,VALID,918.126,VALID,0,VALID,99.2169,VALID,-0.0679233,VALID,18.7853,VALID,206,VALID,0.745703
2000-06-19, 00:20:00,VALID,918.13,VALID,0,VALID,99.1928,VALID,-0.0339617,VALID,18.7756,VALID,203,VALID,0.894326
2000-06-19, 00:21:00,VALID,918.123,VALID,0,VALID,99.1864,VALID,-0.0509425,VALID,18.7855,VALID,212,VALID,0.946615
2000-06-19, 00:22:00,VALID,918.131,VALID,0,VALID,99.1813,VALID,-0.0849042,VALID,18.8054,VALID,219,VALID,0.909288
2000-06-19, 00:23:00,VALID,918.12,VALID,0,VALID,99.1788,VALID,-0.0509425,VALID,18.792,VALID,206,VALID,0.777138
2000-06-19, 00:24:00,VALID,918.11,VALID,0,VALID,99.1585,VALID,-0.0509425,VALID,18.7952,VALID,194,VALID,0.918527
2000-06-19, 00:25:00,VALID,918.105,VALID,0,VALID,99.1343,VALID,-0.0509425,VALID,18.789,VALID,191,VALID,0.763281
2000-06-19, 00:26:00,VALID,918.097,VALID,0,VALID,99.1394,VALID,-0.0679233,VALID,18.7823,VALID,191,VALID,0.637821
2000-06-19, 00:27:00,VALID,918.087,VALID,0,VALID,99.1228,VALID,-0.0679233,VALID,18.7828,VALID,183,VALID,0.3125
2000-06-19, 00:28:00,VALID,918.053,VALID,0,VALID,99.133,VALID,-0.101885,VALID,18.7758,VALID,165,VALID,0.598684
2000-06-19, 00:29:00,VALID,918.028,VALID,0,VALID,99.0961,VALID,-0.0679233,VALID,18.7761,VALID,173,VALID,0.79375
2000-06-19, 00:30:00,VALID,918.009,VALID,0,VALID,99.1127,VALID,-0.0679233,VALID,18.7659,VALID,164,VALID,0.488898
2000-06-19, 00:31:00,VALID,917.994,VALID,0,VALID,99.105,VALID,-0.0849042,VALID,18.7627,VALID,168,VALID,0.567845
2000-06-19, 00:32:00,VALID,917.977,VALID,0,VALID,99.1139,VALID,-0.0169808,VALID,18.783,VALID,163,VALID,0.336149
2000-06-19, 00:33:00,VALID,917.954,VALID,0,VALID,99.1063,VALID,-0.0849042,VALID,18.783,VALID,170,VALID,0.596788
2000-06-19, 00:34:00,VALID,917.936,VALID,0,VALID,99.0656,VALID,-0.0849042,VALID,18.7534,VALID,174,VALID,0.765402
2000-06-19, 00:35:00,VALID,917.908,VALID,0,VALID,99.0733,VALID,-0.0679233,VALID,18.7502,VALID,160,VALID,0.666295
2000-06-19, 00:36:00,VALID,917.904,VALID,0,VALID,99.0618,VALID,-0.0849042,VALID,18.7567,VALID,177,VALID,0.431377
2000-06-19, 00:37:00,VALID,917.874,VALID,0,VALID,99.0389,VALID,-0.0679233,VALID,18.7403,VALID,179,VALID,0.664274
2000-06-19, 00:38:00,VALID,917.857,VALID,0,VALID,99.0275,VALID,-0.0849042,VALID,18.7371,VALID,182,VALID,0.631785
2000-06-19, 00:39:00,VALID,917.856,VALID,0,VALID,99.0224,VALID,-0.0849042,VALID,18.7405,VALID,191,VALID,0.507431
2000-06-19, 00:40:00,VALID,917.845,VALID,0,VALID,99.0389,VALID,-0.0169808,VALID,18.746,VALID,204,VALID,0.248972
2000-06-19, 00:41:00,VALID,917.822,VALID,0,VALID,99.0122,VALID,0.0169808,VALID,18.7523,VALID,206,VALID,0.614104
2000-06-19, 00:42:00,VALID,917.824,VALID,0,VALID,99.0173,VALID,0.0339617,VALID,18.7483,VALID,207,VALID,0.554688
2000-06-19, 00:43:00,VALID,917.809,VALID,0,VALID,99.002,VALID,0,VALID,18.7553,VALID,200,VALID,0.82728
2000-06-19, 00:44:00,VALID,917.788,VALID,0,VALID,99.0084,VALID,0,VALID,18.7654,VALID,218,VALID,0.440625
2000-06-19, 00:45:00,VALID,917.776,VALID,0,VALID,98.9893,VALID,0.0169808,VALID,18.7719,VALID,207,VALID,0.639597
2000-06-19, 00:46:00,VALID,917.781,VALID,0,VALID,98.9677,VALID,0.0169808,VALID,18.7486,VALID,214,VALID,0.740076
2000-06-19, 00:47:00,VALID,917.767,VALID,0,VALID,98.9842,VALID,0.0509425,VALID,18.7453,VALID,212,VALID,0.774054
2000-06-19, 00:48:00,VALID,917.751,VALID,0,VALID,98.9664,VALID,0.0169808,VALID,18.762,VALID,199,VALID,0.70587
2000-06-19, 00:49:00,VALID,917.753,VALID,0,VALID,98.9423,VALID,0.0339617,VALID,18.7585,VALID,192,VALID,0.716211
2000-06-19, 00:50:00,VALID,917.764,VALID,0,VALID,98.8965,VALID,0,VALID,18.7389,VALID,190,VALID,0.87685
2000-06-19, 00:51:00,VALID,917.757,VALID,0,VALID,98.8762,VALID,0,VALID,18.7421,VALID,183,VALID,0.856988
2000-06-19, 00:52:00,VALID,917.758,VALID,0,VALID,98.8545,VALID,0.0339617,VALID,18.7423,VALID,197,VALID,0.850694
2000-06-19, 00:53:00,VALID,917.755,VALID,0,VALID,98.8342,VALID,0.0339617,VALID,18.7426,VALID,191,VALID,0.97903
2000-06-19, 00:54:00,VALID,917.743,VALID,0,VALID,98.8774,VALID,0.0679233,VALID,18.7423,VALID,200,VALID,0.897991
2000-06-19, 00:55:00,VALID,917.737,VALID,0,VALID,98.8647,VALID,0.0169808,VALID,18.7527,VALID,186,VALID,0.671094
2000-06-19, 00:56:00,VALID,917.72,VALID,0,VALID,98.8978,VALID,0.0169808,VALID,18.7564,VALID,196,VALID,0.86278
2000-06-19, 00:57:00,VALID,917.703,VALID,0,VALID,98.9041,VALID,-0.0169808,VALID,18.7599,VALID,188,VALID,0.773232
2000-06-19, 00:58:00,VALID,917.694,VALID,0,VALID,98.9054,VALID,0,VALID,18.7371,VALID,195,VALID,0.221834
2000-06-19, 00:59:00,VALID,917.655,VALID,0,VALID,98.8978,VALID,0,VALID,18.7338,VALID,174,VALID,0
2000-06-19, 01:00:00,VALID,917.628,VALID,0,VALID,98.9079,VALID,0,VALID,18.7209,VALID,165,VALID,0.199424
2000-06-19, 01:01:00,VALID,917.614,VALID,0,VALID,98.9397,VALID,0,VALID,18.7207,VALID,172,VALID,0.441201
2000-06-19, 01:02:00,VALID,917.603,VALID,0,VALID,98.9703,VALID,0,VALID,18.7174,VALID,162,VALID,0.720228
2000-06-19, 01:03:00,VALID,917.574,VALID,0,VALID,98.9614,VALID,-0.0169808,VALID,18.7145,VALID,184,VALID,0.67079
2000-06-19, 01:04:00,VALID,917.552,VALID,0,VALID,98.983,VALID,-0.0169808,VALID,18.7211,VALID,190,VALID,0.639955
2000-06-19, 01:05:00,VALID,917.542,VALID,0,VALID,99.0122,VALID,-0.0339617,VALID,18.7149,VALID,193,VALID,0.616629
2000-06-19, 01:06:00,VALID,917.512,VALID,0,VALID,99.0097,VALID,-0.0169808,VALID,18.7241,VALID,201,VALID,0.470861
2000-06-19, 01:07:00,VALID,917.503,VALID,0,VALID,99.0237,VALID,0,VALID,18.7271,VALID,205,VALID,0.725084
2000-06-19, 01:08:00,VALID,917.492,VALID,0,VALID,99.03,VALID,0.0169808,VALID,18.7338,VALID,192,VALID,0.721217
2000-06-19, 01:09:00,VALID,917.466,VALID,0,VALID,99.0237,VALID,0.0169808,VALID,18.7209,VALID,187,VALID,1.05831
2000-06-19, 01:10:00,VALID,917.456,VALID,0,VALID,99.0338,VALID,0.0169808,VALID,18.7177,VALID,161,VALID,0.745683
2000-06-19, 01:11:00,VALID,917.439,VALID,0,VALID,99.0415,VALID,0,VALID,18.7041,VALID,162,VALID,0.936061
2000-06-19, 01:12:00,VALID,917.422,VALID,0,VALID,99.0389,VALID,0,VALID,18.7112,VALID,164,VALID,0.947049
2000-06-19, 01:13:00,VALID,917.413,VALID,0,VALID,99.0491,VALID,0,VALID,18.7041,VALID,171,VALID,0.849662
2000-06-19, 01:14:00,VALID,917.406,VALID,0,VALID,99.0389,VALID,0,VALID,18.711,VALID,177,VALID,0.725223
2000-06-19, 01:15:01,VALID,917.394,VALID,0,VALID,99.0377,VALID,0.0339617,VALID,18.7209,VALID,183,VALID,0.728618
2000-06-19, 01:16:00,VALID,917.385,VALID,0,VALID,99.0071,VALID,0,VALID,18.7338,VALID,171,VALID,0.751689
2000-06-19, 01:17:00,VALID,917.376,VALID,0,VALID,98.9563,VALID,0,VALID,18.7371,VALID,167,VALID,0.902549
2000-06-19, 01:18:00,VALID,917.359,VALID,0,VALID,98.8927,VALID,0,VALID,18.7534,VALID,173,VALID,0.912796
2000-06-19, 01:19:00,VALID,917.348,VALID,0,VALID,98.8494,VALID,0,VALID,18.756,VALID,181,VALID,0.892773
2000-06-19, 01:20:00,VALID,917.326,VALID,0,VALID,98.81,VALID,0.0169808,VALID,18.7661,VALID,182,VALID,0.76028
2000-06-19, 01:21:00,VALID,917.31,VALID,0,VALID,98.7859,VALID,0,VALID,18.7659,VALID,173,VALID,0.981337
2000-06-19, 01:22:01,VALID,917.306,VALID,0,VALID,98.7503,VALID,0.0169808,VALID,18.7687,VALID,162,VALID,0.793403
2000-06-19, 01:23:00,VALID,917.284,VALID,0,VALID,98.6969,VALID,-0.0509425,VALID,18.7857,VALID,175,VALID,0.860197
2000-06-19, 01:24:00,VALID,917.276,VALID,0,VALID,98.6562,VALID,0,VALID,18.7791,VALID,180,VALID,0.711607
2000-06-19, 01:25:00,VALID,917.249,VALID,0,VALID,98.6142,VALID,0,VALID,18.7726,VALID,185,VALID,0.736523
2000-06-19, 01:26:01,VALID,917.231,VALID,0,VALID,98.6104,VALID,0,VALID,18.7793,VALID,202,VALID,0.802083
2000-06-19, 01:27:00,VALID,917.214,VALID,0,VALID,98.6295,VALID,0,VALID,18.7761,VALID,196,VALID,0.688734
2000-06-19, 01:28:00,VALID,917.209,VALID,0,VALID,98.632,VALID,-0.0169808,VALID,18.7721,VALID,198,VALID,0.630551
2000-06-19, 01:29:00,VALID,917.191,VALID,0,VALID,98.6447,VALID,0,VALID,18.7624,VALID,193,VALID,0.880469
2000-06-19, 01:30:00,VALID,917.191,VALID,0,VALID,98.6613,VALID,0.0169808,VALID,18.7696,VALID,190,VALID,0.912829
2000-06-19, 01:31:01,VALID,917.197,VALID,0,VALID,98.7058,VALID,0,VALID,18.7597,VALID,187,VALID,0.74301
2000-06-19, 01:32:01,VALID,917.191,VALID,0,VALID,98.7579,VALID,0,VALID,18.7597,VALID,207,VALID,0.591216
2000-06-19, 01:33:00,VALID,917.175,VALID,0,VALID,98.8024,VALID,-0.0339617,VALID,18.7765,VALID,200,VALID,0.727648
2000-06-19, 01:34:01,VALID,917.177,VALID,0,VALID,98.8431,VALID,-0.0169808,VALID,18.7724,VALID,202,VALID,0.956473
2000-06-19, 01:35:01,VALID,917.171,VALID,0,VALID,98.8838,VALID,0.0169808,VALID,18.7758,VALID,191,VALID,0.876302
2000-06-19, 01:36:00,VALID,917.152,VALID,0,VALID,98.9156,VALID,0.0169808,VALID,18.7892,VALID,192,VALID,0.60663
2000-06-19, 01:37:00,VALID,917.14,VALID,0,VALID,98.927,VALID,-0.0169808,VALID,18.7756,VALID,188,VALID,0.691301
2000-06-19, 01:38:00,VALID,917.111,VALID,0,VALID,98.913,VALID,0.0169808,VALID,18.7664,VALID,179,VALID,0.538857
2000-06-19, 01:39:00,VALID,917.095,VALID,0,VALID,98.927,VALID,0,VALID,18.7502,VALID,169,VALID,0.642531
2000-06-19, 01:40:00,VALID,917.074,VALID,0,VALID,98.9334,VALID,0,VALID,18.7403,VALID,166,VALID,0.418997
2000-06-19, 01:41:00,VALID,917.062,VALID,0,VALID,98.9588,VALID,0,VALID,18.7597,VALID,161,VALID,0.00616776
2000-06-19, 01:42:00,VALID,917.063,VALID,0,VALID,98.9804,VALID,0.0169808,VALID,18.7468,VALID,161,VALID,0
2000-06-19, 01:43:00,VALID,917.064,VALID,0,VALID,99.0071,VALID,0.0679233,VALID,18.7627,VALID,161,VALID,0
2000-06-19, 01:44:00,VALID,917.058,VALID,0,VALID,99.0186,VALID,0.0169808,VALID,18.7691,VALID,161,VALID,0
2000-06-19, 01:45:01,VALID,917.063,VALID,0,VALID,98.9881,VALID,0,VALID,18.7728,VALID,161,VALID,0
2000-06-19, 01:46:00,VALID,917.048,VALID,0,VALID,98.9601,VALID,-0.0339617,VALID,18.7435,VALID,178,VALID,0
2000-06-19, 01:47:01,VALID,917.032,VALID,0,VALID,98.9792,VALID,0,VALID,18.7403,VALID,183,VALID,0
2000-06-19, 01:48:00,VALID,917.025,VALID,0,VALID,98.9982,VALID,0,VALID,18.7371,VALID,194,VALID,0
2000-06-19, 01:49:00,VALID,917.01,VALID,0,VALID,98.9817,VALID,0,VALID,18.7438,VALID,197,VALID,0
2000-06-19, 01:50:00,VALID,916.999,VALID,0,VALID,98.9575,VALID,0.0339617,VALID,18.7108,VALID,188,VALID,0
2000-06-19, 01:51:00,VALID,916.984,VALID,0,VALID,98.9715,VALID,0,VALID,18.7013,VALID,175,VALID,0
2000-06-19, 01:52:01,VALID,916.975,VALID,0,VALID,99.0109,VALID,0,VALID,18.7212,VALID,167,VALID,0.21875
2000-06-19, 01:53:00,VALID,916.968,VALID,0,VALID,98.9664,VALID,0,VALID,18.7015,VALID,183,VALID,0.590666
2000-06-19, 01:54:00,VALID,916.959,VALID,0,VALID,98.9842,VALID,0,VALID,18.6988,VALID,196,VALID,0.550446
2000-06-19, 01:55:00,VALID,916.953,VALID,0,VALID,99.0211,VALID,0.0169808,VALID,18.6985,VALID,193,VALID,0.305469
2000-06-19, 01:56:00,VALID,916.961,VALID,0,VALID,99.0109,VALID,0.0169808,VALID,18.6951,VALID,177,VALID,0.453125
2000-06-19, 01:57:00,VALID,916.949,VALID,0,VALID,99.0109,VALID,0,VALID,18.7018,VALID,172,VALID,0.291324
2000-06-19, 01:58:00,VALID,916.934,VALID,0,VALID,99.0377,VALID,0,VALID,18.7115,VALID,156,VALID,0.386924
2000-06-19, 01:59:00,VALID,916.926,VALID,0,VALID,99.0605,VALID,-0.0169808,VALID,18.7179,VALID,126,VALID,0.302344
2000-06-19, 02:00:01,VALID,916.91,VALID,0,VALID,99.0707,VALID,0,VALID,18.7308,VALID,121,VALID,0
2000-06-19, 02:01:01,VALID,916.896,VALID,0,VALID,99.0758,VALID,0,VALID,18.7274,VALID,121,VALID,0
2000-06-19, 02:02:00,VALID,916.881,VALID,0,VALID,99.0783,VALID,0,VALID,18.7341,VALID,117,VALID,0
2000-06-19, 02:03:00,VALID,916.859,VALID,0,VALID,99.0796,VALID,0,VALID,18.7405,VALID,97,VALID,0
2000-06-19, 02:04:01,VALID,916.847,VALID,0,VALID,99.0466,VALID,-0.0169808,VALID,18.7343,VALID,87,VALID,0.387277
2000-06-19, 02:05:01,VALID,916.833,VALID,0,VALID,99.0148,VALID,0,VALID,18.6921,VALID,89,VALID,0.563616
2000-06-19, 02:06:01,VALID,916.823,VALID,0,VALID,99.0046,VALID,0.0169808,VALID,18.6826,VALID,98,VALID,0.374789
2000-06-19, 02:07:01,VALID,916.821,VALID,0,VALID,99.0377,VALID,0,VALID,18.6725,VALID,98,VALID,0.063978
2000-06-19, 02:08:00,VALID,916.79,VALID,0,VALID,99.0338,VALID,-0.0169808,VALID,18.6665,VALID,79,VALID,0
2000-06-19, 02:09:00,VALID,916.789,VALID,0,VALID,99.0605,VALID,0,VALID,18.6826,VALID,79,VALID,0
2000-06-19, 02:10:00,VALID,916.767,VALID,0,VALID,99.0822,VALID,-0.0169808,VALID,18.6859,VALID,80,VALID,0
2000-06-19, 02:11:00,VALID,916.761,VALID,0,VALID,99.1063,VALID,0,VALID,18.6955,VALID,80,VALID,0
2000-06-19, 02:12:00,VALID,916.747,VALID,0,VALID,99.105,VALID,0,VALID,18.7018,VALID,82,VALID,0
2000-06-19, 02:13:00,VALID,916.74,VALID,0,VALID,99.1267,VALID,0,VALID,18.7087,VALID,91,VALID,0
2000-06-19, 02:14:00,VALID,916.738,VALID,0,VALID,99.1368,VALID,0,VALID,18.7211,VALID,95,VALID,0
2000-06-19, 02:15:01,VALID,916.747,VALID,0,VALID,99.0974,VALID,0,VALID,18.702,VALID,100,VALID,0
2000-06-19, 02:16:00,VALID,916.736,VALID,0,VALID,99.1063,VALID,0.0169808,VALID,18.6918,VALID,113,VALID,0
2000-06-19, 02:17:01,VALID,916.724,VALID,0,VALID,99.1216,VALID,0,VALID,18.6921,VALID,117,VALID,0
2000-06-19, 02:18:00,VALID,916.72,VALID,0,VALID,99.1445,VALID,0,VALID,18.7015,VALID,117,VALID,0
2000-06-19, 02:19:00,VALID,916.707,VALID,0,VALID,99.1292,VALID,0.0169808,VALID,18.6951,VALID,108,VALID,0
2000-06-19, 02:20:00,VALID,916.71,VALID,0,VALID,99.1381,VALID,0,VALID,18.6921,VALID,97,VALID,0.209293
2000-06-19, 02:21:00,VALID,916.696,VALID,0,VALID,99.1496,VALID,0,VALID,18.6985,VALID,97,VALID,0.390625
2000-06-19, 02:22:01,VALID,916.695,VALID,0,VALID,99.1381,VALID,0,VALID,18.6826,VALID,60,VALID,0.699219
2000-06-19, 02:23:01,VALID,916.702,VALID,0,VALID,99.1012,VALID,-0.0169808,VALID,18.6563,VALID,24,VALID,0.645354
2000-06-19, 02:24:00,VALID,916.693,VALID,0,VALID,99.1368,VALID,0,VALID,18.6536,VALID,354,VALID,0.358705
2000-06-19, 02:25:00,VALID,916.682,VALID,0,VALID,99.161,VALID,0,VALID,18.6533,VALID,335,VALID,0.123633
2000-06-19, 02:26:01,VALID,916.675,VALID,0,VALID,99.1941,VALID,0,VALID,18.6722,VALID,335,VALID,0
2000-06-19, 02:27:00,VALID,916.662,VALID,0,VALID,99.189,VALID,0,VALID,18.6695,VALID,335,VALID,0
2000-06-19, 02:28:00,VALID,916.638,VALID,0,VALID,99.208,VALID,0,VALID,18.6692,VALID,335,VALID,0
2000-06-19, 02:29:00,VALID,916.621,VALID,0,VALID,99.2017,VALID,0.0169808,VALID,18.6533,VALID,335,VALID,0
2000-06-19, 02:30:00,VALID,916.621,VALID,0,VALID,99.1953,VALID,-0.0339617,VALID,18.6436,VALID,345,VALID,0
2000-06-19, 02:31:01,VALID,916.636,VALID,0,VALID,99.1763,VALID,0,VALID,18.6146,VALID,357,VALID,0
2000-06-19, 02:32:01,VALID,916.633,VALID,0,VALID,99.2068,VALID,0.0169808,VALID,18.6176,VALID,75,VALID,0.230785
2000-06-19, 02:33:00,VALID,916.633,VALID,0,VALID,99.2602,VALID,0,VALID,18.6404,VALID,96,VALID,1.17209
2000-06-19, 02:34:01,VALID,916.622,VALID,0,VALID,99.2793,VALID,0,VALID,18.6536,VALID,96,VALID,0.903571
2000-06-19, 02:35:01,VALID,916.627,VALID,0,VALID,99.3047,VALID,0.0169808,VALID,18.6662,VALID,95,VALID,0.591146
2000-06-19, 02:36:00,VALID,916.625,VALID,0,VALID,99.3034,VALID,0.0169808,VALID,18.6757,VALID,54,VALID,0.146115
2000-06-19, 02:37:01,VALID,916.628,VALID,0,VALID,99.2958,VALID,0,VALID,18.6533,VALID,334,VALID,0
2000-06-19, 02:38:00,VALID,916.619,VALID,0,VALID,99.2932,VALID,0.0169808,VALID,18.6337,VALID,335,VALID,0
2000-06-19, 02:39:00,VALID,916.601,VALID,0,VALID,99.306,VALID,0,VALID,18.6307,VALID,37,VALID,0
2000-06-19, 02:40:01,VALID,916.583,VALID,0,VALID,99.3365,VALID,0.0169808,VALID,18.6499,VALID,119,VALID,0
2000-06-19, 02:41:00,VALID,916.58,VALID,0,VALID,99.3428,VALID,0,VALID,18.6499,VALID,119,VALID,0
2000-06-19, 02:42:00,VALID,916.566,VALID,0,VALID,99.3377,VALID,0.0339617,VALID,18.6464,VALID,119,VALID,0
2000-06-19, 02:43:00,VALID,916.555,VALID,0,VALID,99.3428,VALID,0,VALID,18.6469,VALID,119,VALID,0
2000-06-19, 02:44:01,VALID,916.567,VALID,0,VALID,99.3365,VALID,0,VALID,18.6307,VALID,119,VALID,0
2000-06-19, 02:45:01,VALID,916.556,VALID,0,VALID,99.3403,VALID,0,VALID,18.6176,VALID,119,VALID,0
2000-06-19, 02:46:00,VALID,916.571,VALID,0,VALID,99.3428,VALID,0,VALID,18.6243,VALID,119,VALID,0
2000-06-19, 02:47:01,VALID,916.574,VALID,0,VALID,99.3556,VALID,0,VALID,18.6309,VALID,120,VALID,0
2000-06-19, 02:48:01,VALID,916.577,VALID,0,VALID,99.3416,VALID,0,VALID,18.6046,VALID,125,VALID,0
2000-06-19, 02:49:00,VALID,916.577,VALID,0,VALID,99.3199,VALID,0,VALID,18.582,VALID,126,VALID,0
2000-06-19, 02:50:01,VALID,916.59,VALID,0,VALID,99.3072,VALID,0.0169808,VALID,18.5659,VALID,94,VALID,0
2000-06-19, 02:51:01,VALID,916.591,VALID,0,VALID,99.2996,VALID,0.0169808,VALID,18.5435,VALID,76,VALID,0.381944
2000-06-19, 02:52:01,VALID,916.583,VALID,0,VALID,99.3021,VALID,0,VALID,18.5437,VALID,98,VALID,0.616753
2000-06-19, 02:53:00,VALID,916.554,VALID,0,VALID,99.3174,VALID,0,VALID,18.5428,VALID,104,VALID,0.0148026
2000-06-19, 02:54:01,VALID,916.55,VALID,0,VALID,99.2983,VALID,0.0169808,VALID,18.5398,VALID,103,VALID,0
2000-06-19, 02:55:01,VALID,916.518,VALID,0,VALID,99.2615,VALID,-0.0339617,VALID,18.5241,VALID,134,VALID,0
2000-06-19, 02:56:00,VALID,916.529,VALID,0,VALID,99.2182,VALID,-0.0169808,VALID,18.4854,VALID,29,VALID,0.124199
2000-06-19, 02:57:01,VALID,916.538,VALID,0,VALID,99.2106,VALID,-0.0169808,VALID,18.463,VALID,294,VALID,0
2000-06-19, 02:58:01,VALID,916.515,VALID,0,VALID,99.2297,VALID,0,VALID,18.4595,VALID,261,VALID,0
2000-06-19, 02:59:01,VALID,916.519,VALID,0,VALID,99.2182,VALID,0,VALID,18.4402,VALID,261,VALID,0
2000-06-19, 03:00:01,VALID,916.535,VALID,0,VALID,99.2462,VALID,-0.0169808,VALID,18.4565,VALID,38,VALID,0
2000-06-19, 03:01:01,VALID,916.547,VALID,0,VALID,99.208,VALID,-0.0169808,VALID,18.4369,VALID,41,VALID,0
2000-06-19, 03:02:01,VALID,916.553,VALID,0,VALID,99.2106,VALID,0,VALID,18.4468,VALID,38,VALID,0
2000-06-19, 03:03:01,VALID,916.541,VALID,0,VALID,99.2068,VALID,-0.0169808,VALID,18.4498,VALID,85,VALID,0
2000-06-19, 03:04:01,VALID,916.545,VALID,0,VALID,99.1966,VALID,-0.0169808,VALID,18.4561,VALID,88,VALID,0
2000-06-19, 03:05:01,VALID,916.545,VALID,0,VALID,99.1852,VALID,-0.0169808,VALID,18.4787,VALID,89,VALID,0
2000-06-19, 03:06:01,VALID,916.547,VALID,0,VALID,99.1572,VALID,-0.0169808,VALID,18.4985,VALID,89,VALID,0
2000-06-19, 03:07:01,VALID,916.533,VALID,0,VALID,99.1178,VALID,0,VALID,18.4983,VALID,89,VALID,0
2000-06-19, 03:08:01,VALID,916.521,VALID,0,VALID,99.0427,VALID,-0.0169808,VALID,18.4886,VALID,89,VALID,0
2000-06-19, 03:09:01,VALID,916.518,VALID,0,VALID,98.9614,VALID,-0.0169808,VALID,18.4496,VALID,89,VALID,0
2000-06-19, 03:10:01,VALID,916.5,VALID,0,VALID,98.9423,VALID,0,VALID,18.4436,VALID,80,VALID,0
2000-06-19, 03:11:01,VALID,916.48,VALID,0,VALID,98.9156,VALID,-0.0339617,VALID,18.4277,VALID,78,VALID,0
2000-06-19, 03:12:01,VALID,916.466,VALID,0,VALID,98.941,VALID,-0.0339617,VALID,18.4339,VALID,78,VALID,0
2000-06-19, 03:13:01,VALID,916.433,VALID,0,VALID,98.9741,VALID,-0.0169808,VALID,18.4468,VALID,78,VALID,0
2000-06-19, 03:14:01,VALID,916.419,VALID,0,VALID,98.9919,VALID,0,VALID,18.4473,VALID,101,VALID,0
2000-06-19, 03:15:00,VALID,916.402,VALID,0,VALID,98.9677,VALID,-0.0339617,VALID,18.4372,VALID,176,VALID,0
2000-06-19, 03:16:00,VALID,916.388,VALID,0,VALID,98.9563,VALID,-0.0509425,VALID,18.4208,VALID,176,VALID,0
2000-06-19, 03:17:00,VALID,916.396,VALID,0,VALID,98.9334,VALID,-0.0509425,VALID,18.4118,VALID,176,VALID,0
2000-06-19, 03:18:00,VALID,916.395,VALID,0,VALID,98.9181,VALID,-0.0509425,VALID,18.3919,VALID,176,VALID,0
2000-06-19, 03:19:00,VALID,916.402,VALID,0,VALID,98.9283,VALID,-0.0849042,VALID,18.3857,VALID,176,VALID,0
2000-06-19, 03:20:00,VALID,916.408,VALID,0,VALID,98.983,VALID,0,VALID,18.415,VALID,176,VALID,0
2000-06-19, 03:21:00,VALID,916.403,VALID,0,VALID,98.9766,VALID,-0.0509425,VALID,18.4016,VALID,176,VALID,0
2000-06-19, 03:22:00,VALID,916.405,VALID,0,VALID,98.8952,VALID,-0.0169808,VALID,18.3599,VALID,176,VALID,0
2000-06-19, 03:23:00,VALID,916.402,VALID,0,VALID,98.8062,VALID,-0.0339617,VALID,18.3047,VALID,176,VALID,0
2000-06-19, 03:24:00,VALID,916.392,VALID,0,VALID,98.8329,VALID,-0.0509425,VALID,18.3052,VALID,175,VALID,0
2000-06-19, 03:25:00,VALID,916.391,VALID,0,VALID,98.824,VALID,-0.101885,VALID,18.2828,VALID,175,VALID,0
2000-06-19, 03:26:00,VALID,916.384,VALID,0,VALID,98.8227,VALID,-0.0509425,VALID,18.2563,VALID,175,VALID,0
2000-06-19, 03:27:00,VALID,916.38,VALID,0,VALID,98.8469,VALID,-0.0509425,VALID,18.2436,VALID,162,VALID,0
2000-06-19, 03:28:00,VALID,916.371,VALID,0,VALID,98.8355,VALID,-0.0509425,VALID,18.2275,VALID,139,VALID,0
2000-06-19, 03:29:00,VALID,916.359,VALID,0,VALID,98.8253,VALID,-0.0339617,VALID,18.2014,VALID,135,VALID,0
2000-06-19, 03:30:00,VALID,916.35,VALID,0,VALID,98.8609,VALID,-0.0339617,VALID,18.1986,VALID,135,VALID,0
2000-06-19, 03:31:00,VALID,916.337,VALID,0,VALID,98.9258,VALID,-0.0849042,VALID,18.2081,VALID,135,VALID,0
2000-06-19, 03:32:00,VALID,916.319,VALID,0,VALID,98.9652,VALID,-0.0679233,VALID,18.2307,VALID,135,VALID,0
2000-06-19, 03:33:00,VALID,916.281,VALID,0,VALID,99.0071,VALID,-0.0679233,VALID,18.2438,VALID,135,VALID,0
2000-06-19, 03:34:00,VALID,916.245,VALID,0,VALID,98.9881,VALID,-0.0339617,VALID,18.2436,VALID,135,VALID,0
2000-06-19, 03:35:00,VALID,916.213,VALID,0,VALID,98.9982,VALID,-0.0339617,VALID,18.2436,VALID,135,VALID,0
2000-06-19, 03:36:00,VALID,916.214,VALID,0,VALID,99.0249,VALID,-0.0509425,VALID,18.2593,VALID,135,VALID,0
2000-06-19, 03:37:00,VALID,916.215,VALID,0,VALID,99.0122,VALID,-0.0509425,VALID,18.2699,VALID,140,VALID,0
2000-06-19, 03:38:00,VALID,916.209,VALID,0,VALID,98.9703,VALID,-0.0339617,VALID,18.2664,VALID,141,VALID,0
2000-06-19, 03:39:00,VALID,916.207,VALID,0,VALID,98.9588,VALID,-0.0169808,VALID,18.263,VALID,153,VALID,0
2000-06-19, 03:40:00,VALID,916.199,VALID,0,VALID,98.9385,VALID,-0.0339617,VALID,18.2757,VALID,168,VALID,0
2000-06-19, 03:41:00,VALID,916.219,VALID,0,VALID,98.9118,VALID,-0.0509425,VALID,18.2831,VALID,167,VALID,0
2000-06-19, 03:42:00,VALID,916.219,VALID,0,VALID,98.88,VALID,-0.0339617,VALID,18.2856,VALID,156,VALID,0